This demonstration page uses our WeatherBlox Daily Observations layout. Learn more.

39.92423, -83.80882

Hourly Observations for May 9, 2017

Temp ( °F °C ) Dew Point ( °F °C ) Humidity (%) Winds ( mph kmh ) Pressure ( in mb ) Visibility ( mi km ) Precip ( " mm )
12:56 am 00:56 Mostly Cloudy 49 9.4 43 6.1 80 80 Calm 30.01 1016 10 16.0934 0 0
1:56 am 01:56 Cloudy 49 9.4 40 4.4 71 71 SSW 3 6 29.99 1016 10 16.0934 0 0
2:56 am 02:56 Cloudy with Light Rain 49 9.4 41 5 74 74 Calm 30 1016 9 14.48406 0.01 0.254
3:56 am 03:56 Cloudy 48 8.9 41 5 77 77 N 5 7 29.99 1016 10 16.0934 0.01 0.254
4:56 am 04:56 Cloudy 48 8.9 41 5 77 77 Calm 29.97 1015 10 16.0934 0 0
5:56 am 05:56 Cloudy 48 8.9 44 6.7 86 86 SW 3 6 29.98 1015 10 16.0934 0 0
6:56 am 06:56 Mostly Cloudy 47 8.3 43 6.1 86 86 Calm 29.98 1015 10 16.0934 0 0
7:56 am 07:56 Cloudy 48 8.9 43 6.1 83 83 Calm 29.99 1016 10 16.0934 0 0
8:56 am 08:56 Cloudy 50 10 43 6.1 77 77 W 3 6 30.01 1016 10 16.0934 0 0
9:56 am 09:56 Cloudy 50 10 44 6.7 80 80 SW 7 11 30.01 1016 10 16.0934 0 0
10:56 am 10:56 Cloudy with Light Rain 48 8.9 46 7.8 93 93 undefined N/A 30.02 1017 10 16.0934 0 0.0254
11:56 am 11:56 Cloudy 51 10.6 44 6.7 77 77 S 9 15 29.98 1015 10 16.0934 0.05 1.27
12:56 pm 12:56 Cloudy 51 10.6 44 6.7 77 77 WSW 6 9 30.01 1016 10 16.0934 0 0
1:56 pm 13:56 Cloudy 52 11.1 45 7.2 77 77 SW 5 7 30 1016 10 16.0934 0 0.0254
2:56 pm 14:56 Cloudy 54 12.2 48 8.9 80 80 SSE 5 7 30 1016 10 16.0934 0 0
3:56 pm 15:56 Cloudy 55 12.8 50 10 83 83 ENE 5 7 29.98 1015 10 16.0934 0 0.0254
4:17 pm 16:17 Cloudy 55 13 48 9 77 77 E 6 9 29.97 1015 10 16.0934 0 0
4:56 pm 16:56 Cloudy 56 13.3 50 10 81 81 ESE 5 7 29.96 1015 10 16.0934 0 0
5:26 pm 17:26 Cloudy 55 13 50 10 82 82 ESE 5 7 29.94 1014 10 16.0934 0 0
5:56 pm 17:56 Cloudy 57 13.9 50 10 78 78 SE 7 11 29.95 1014 10 16.0934 0 0
6:56 pm 18:56 Cloudy 57 13.9 50 10 78 78 ESE 7 11 29.94 1014 10 16.0934 0 0
7:56 pm 19:56 Cloudy 56 13.3 50 10 81 81 ESE 7 11 29.94 1014 10 16.0934 0 0
8:56 pm 20:56 Cloudy 55 12.8 49 9.4 80 80 ESE 7 11 29.94 1014 10 16.0934 0 0
9:56 pm 21:56 Cloudy 55 12.8 49 9.4 80 80 ESE 8 13 29.95 1014 10 16.0934 0 0
10:56 pm 22:56 Cloudy 54 12.2 49 9.4 83 83 ESE 6 9 29.97 1015 10 16.0934 0 0
11:56 pm 23:56 Cloudy 54 12.2 49 9.4 83 83 E 6 9 29.97 1015 10 16.0934 0 0

Powered by AerisWeather